Year,Month,Day,Hour,Minute,Value (Times are PST for windspeed in km/hr)
2006,01,31,00,00,1.50
2006,01,31,00,01,3.60
2006,01,31,00,02,6.80
2006,01,31,00,03,3.50
2006,01,31,00,04,2.50
2006,01,31,00,05,4.70
2006,01,31,00,06,4.40
2006,01,31,00,07,5.60
2006,01,31,00,08,8.90
2006,01,31,00,09,5.30
2006,01,31,00,10,5.10
2006,01,31,00,11,6.30
2006,01,31,00,12,4.70
2006,01,31,00,13,5.60
2006,01,31,00,14,5.00
2006,01,31,00,15,5.60
2006,01,31,00,16,6.60
2006,01,31,00,17,6.70
2006,01,31,00,18,5.50
2006,01,31,00,19,8.60
2006,01,31,00,20,7.70
2006,01,31,00,21,5.90
2006,01,31,00,22,16.00
2006,01,31,00,23,12.50
2006,01,31,00,24,8.90
2006,01,31,00,25,5.80
2006,01,31,00,26,7.70
2006,01,31,00,27,9.60
2006,01,31,00,28,14.50
2006,01,31,00,29,17.30
2006,01,31,00,30,10.00
2006,01,31,00,31,7.90
2006,01,31,00,32,9.70
2006,01,31,00,33,9.20
2006,01,31,00,34,9.60
2006,01,31,00,35,7.60
2006,01,31,00,36,7.20
2006,01,31,00,37,13.00
2006,01,31,00,38,13.60
2006,01,31,00,39,5.00
2006,01,31,00,40,5.70
2006,01,31,00,41,5.70
2006,01,31,00,42,9.70
2006,01,31,00,43,8.50
2006,01,31,00,44,6.80
2006,01,31,00,45,6.50
2006,01,31,00,46,8.80
2006,01,31,00,47,7.90
2006,01,31,00,48,8.30
2006,01,31,00,49,6.80
2006,01,31,00,50,6.80
2006,01,31,00,51,9.80
2006,01,31,00,52,10.50
2006,01,31,00,53,8.00
2006,01,31,00,54,7.00
2006,01,31,00,55,12.30
2006,01,31,00,56,8.80
2006,01,31,00,57,8.10
2006,01,31,00,58,7.00
2006,01,31,00,59,6.60
2006,01,31,01,00,7.30
2006,01,31,01,01,6.90
2006,01,31,01,02,7.40
2006,01,31,01,03,7.90
2006,01,31,01,04,8.10
2006,01,31,01,05,6.20
2006,01,31,01,06,5.30
2006,01,31,01,07,5.20
2006,01,31,01,08,6.20
2006,01,31,01,09,5.00
2006,01,31,01,10,5.80
2006,01,31,01,11,6.80
2006,01,31,01,12,6.30
2006,01,31,01,13,4.50
2006,01,31,01,14,2.70
2006,01,31,01,15,5.10
2006,01,31,01,16,6.00
2006,01,31,01,17,5.30
2006,01,31,01,18,4.30
2006,01,31,01,19,4.10
2006,01,31,01,20,3.10
2006,01,31,01,21,6.20
2006,01,31,01,22,10.10
2006,01,31,01,23,5.10
2006,01,31,01,24,4.30
2006,01,31,01,25,6.10
2006,01,31,01,26,6.60
2006,01,31,01,27,5.90
2006,01,31,01,28,4.10
2006,01,31,01,29,3.60
2006,01,31,01,30,4.60
2006,01,31,01,31,4.40
2006,01,31,01,32,3.40
2006,01,31,01,33,4.70
2006,01,31,01,34,4.60
2006,01,31,01,35,2.70
2006,01,31,01,36,1.60
2006,01,31,01,37,4.50
2006,01,31,01,38,3.50
2006,01,31,01,39,4.30
2006,01,31,01,40,2.20
2006,01,31,01,41,2.30
2006,01,31,01,42,3.50
2006,01,31,01,43,5.20
2006,01,31,01,44,5.10
2006,01,31,01,45,2.10
2006,01,31,01,46,2.70
2006,01,31,01,47,3.90
2006,01,31,01,48,2.90
2006,01,31,01,49,3.80
2006,01,31,01,50,3.10
2006,01,31,01,51,3.30
2006,01,31,01,52,2.00
2006,01,31,01,53,3.00
2006,01,31,01,54,3.20
2006,01,31,01,55,3.70
2006,01,31,01,56,2.90
2006,01,31,01,57,5.10
2006,01,31,01,58,7.50
2006,01,31,01,59,5.60
2006,01,31,02,00,5.60
2006,01,31,02,01,6.00
2006,01,31,02,02,4.60
2006,01,31,02,03,6.00
2006,01,31,02,04,5.10
2006,01,31,02,05,6.10
2006,01,31,02,06,3.50
2006,01,31,02,07,4.70
2006,01,31,02,08,7.00
2006,01,31,02,09,6.40
2006,01,31,02,10,9.30
2006,01,31,02,11,5.20
2006,01,31,02,12,4.40
2006,01,31,02,13,6.10
2006,01,31,02,14,5.50
2006,01,31,02,15,4.50
2006,01,31,02,16,5.90
2006,01,31,02,17,4.60
2006,01,31,02,18,3.90
2006,01,31,02,19,2.70
2006,01,31,02,20,2.80
2006,01,31,02,21,5.00
2006,01,31,02,22,4.60
2006,01,31,02,23,2.80
2006,01,31,02,24,4.40
2006,01,31,02,25,1.30
2006,01,31,02,26,3.70
2006,01,31,02,27,3.50
2006,01,31,02,28,1.80
2006,01,31,02,29,1.90
2006,01,31,02,30,3.00
2006,01,31,02,31,1.80
2006,01,31,02,32,1.70
2006,01,31,02,33,2.20
2006,01,31,02,34,4.10
2006,01,31,02,35,4.40
2006,01,31,02,36,4.60
2006,01,31,02,37,5.80
2006,01,31,02,38,8.00
2006,01,31,02,39,7.30
2006,01,31,02,40,5.20
2006,01,31,02,41,6.90
2006,01,31,02,42,6.60
2006,01,31,02,43,5.40
2006,01,31,02,44,7.00
2006,01,31,02,45,4.50
2006,01,31,02,46,3.00
2006,01,31,02,47,4.30
2006,01,31,02,48,3.80
2006,01,31,02,49,1.10
2006,01,31,02,50,2.60
2006,01,31,02,51,4.20
2006,01,31,02,52,7.70
2006,01,31,02,53,4.90
2006,01,31,02,54,3.40
2006,01,31,02,55,4.30
2006,01,31,02,56,3.50
2006,01,31,02,57,1.90
2006,01,31,02,58,3.70
2006,01,31,02,59,3.10
2006,01,31,03,00,3.70
2006,01,31,03,01,2.20
2006,01,31,03,02,4.50
2006,01,31,03,03,4.80
2006,01,31,03,04,2.60
2006,01,31,03,05,3.10
2006,01,31,03,06,0.10
2006,01,31,03,07,0.20
2006,01,31,03,08,0.50
2006,01,31,03,09,0.60
2006,01,31,03,10,0.70
2006,01,31,03,11,1.80
2006,01,31,03,12,1.40
2006,01,31,03,13,2.00
2006,01,31,03,14,2.30
2006,01,31,03,15,1.80
2006,01,31,03,16,1.60
2006,01,31,03,17,1.80
2006,01,31,03,18,0.20
2006,01,31,03,19,0.20
2006,01,31,03,20,1.70
2006,01,31,03,21,1.00
2006,01,31,03,22,0.10
2006,01,31,03,23,0.00
2006,01,31,03,24,1.50
2006,01,31,03,25,3.90
2006,01,31,03,26,2.00
2006,01,31,03,27,0.00
2006,01,31,03,28,1.90
2006,01,31,03,29,1.70
2006,01,31,03,30,0.00
2006,01,31,03,31,0.10
2006,01,31,03,32,0.00
2006,01,31,03,33,0.00
2006,01,31,03,34,0.00
2006,01,31,03,35,0.20
2006,01,31,03,36,1.10
2006,01,31,03,37,2.40
2006,01,31,03,38,5.60
2006,01,31,03,39,4.30
2006,01,31,03,40,2.90
2006,01,31,03,41,1.60
2006,01,31,03,42,2.00
2006,01,31,03,43,1.20
2006,01,31,03,44,2.30
2006,01,31,03,45,0.20
2006,01,31,03,46,0.50
2006,01,31,03,47,5.00
2006,01,31,03,48,7.80
2006,01,31,03,49,4.70
2006,01,31,03,50,5.30
2006,01,31,03,51,3.20
2006,01,31,03,52,4.90
2006,01,31,03,53,4.50
2006,01,31,03,54,9.10
2006,01,31,03,55,6.50
2006,01,31,03,56,4.00
2006,01,31,03,57,4.00
2006,01,31,03,58,8.00
2006,01,31,03,59,6.60
2006,01,31,04,00,3.90
2006,01,31,04,01,5.90
2006,01,31,04,02,6.50
2006,01,31,04,03,5.90
2006,01,31,04,04,4.90
2006,01,31,04,05,6.50
2006,01,31,04,06,2.30
2006,01,31,04,07,2.40
2006,01,31,04,08,4.70
2006,01,31,04,09,1.80
2006,01,31,04,10,4.70
2006,01,31,04,11,7.20
2006,01,31,04,12,6.40
2006,01,31,04,13,6.10
2006,01,31,04,14,5.50
2006,01,31,04,15,7.20
2006,01,31,04,16,3.90
2006,01,31,04,17,2.60
2006,01,31,04,18,5.70
2006,01,31,04,19,5.70
2006,01,31,04,20,4.70
2006,01,31,04,21,5.30
2006,01,31,04,22,5.10
2006,01,31,04,23,5.90
2006,01,31,04,24,4.60
2006,01,31,04,25,4.10
2006,01,31,04,26,2.40
2006,01,31,04,27,5.80
2006,01,31,04,28,5.80
2006,01,31,04,29,4.60
2006,01,31,04,30,3.60
2006,01,31,04,31,6.80
2006,01,31,04,32,4.50
2006,01,31,04,33,2.70
2006,01,31,04,34,6.40
2006,01,31,04,35,8.50
2006,01,31,04,36,4.60
2006,01,31,04,37,3.10
2006,01,31,04,38,7.40
2006,01,31,04,39,8.90
2006,01,31,04,40,7.20
2006,01,31,04,41,7.30
2006,01,31,04,42,9.10
2006,01,31,04,43,9.40
2006,01,31,04,44,8.50
2006,01,31,04,45,8.60
2006,01,31,04,46,7.90
2006,01,31,04,47,11.40
2006,01,31,04,48,8.10
2006,01,31,04,49,7.30
2006,01,31,04,50,5.70
2006,01,31,04,51,3.40
2006,01,31,04,52,5.00
2006,01,31,04,53,5.80
2006,01,31,04,54,5.10
2006,01,31,04,55,6.70
2006,01,31,04,56,4.30
2006,01,31,04,57,6.80
2006,01,31,04,58,5.60
2006,01,31,04,59,3.50
2006,01,31,05,00,2.90
2006,01,31,05,01,3.70
2006,01,31,05,02,2.70
2006,01,31,05,03,3.50
2006,01,31,05,04,5.30
2006,01,31,05,05,4.60
2006,01,31,05,06,3.30
2006,01,31,05,07,4.70
2006,01,31,05,08,3.40
2006,01,31,05,09,3.60
2006,01,31,05,10,6.60
2006,01,31,05,11,10.70
2006,01,31,05,12,5.40
2006,01,31,05,13,11.30
2006,01,31,05,14,8.40
2006,01,31,05,15,6.40
2006,01,31,05,16,5.10
2006,01,31,05,17,8.90
2006,01,31,05,18,5.10
2006,01,31,05,19,7.20
2006,01,31,05,20,7.60
2006,01,31,05,21,6.40
2006,01,31,05,22,5.30
2006,01,31,05,23,4.80
2006,01,31,05,24,6.30
2006,01,31,05,25,6.20
2006,01,31,05,26,10.20
2006,01,31,05,27,12.10
2006,01,31,05,28,5.60
2006,01,31,05,29,8.10
2006,01,31,05,30,8.10
2006,01,31,05,31,6.40
2006,01,31,05,32,6.30
2006,01,31,05,33,7.20
2006,01,31,05,34,9.40
2006,01,31,05,35,6.30
2006,01,31,05,36,8.50
2006,01,31,05,37,5.10
2006,01,31,05,38,7.90
2006,01,31,05,39,8.90
2006,01,31,05,40,5.40
2006,01,31,05,41,4.40
2006,01,31,05,42,5.20
2006,01,31,05,43,4.20
2006,01,31,05,44,5.60
2006,01,31,05,45,7.00
2006,01,31,05,46,8.30
2006,01,31,05,47,7.30
2006,01,31,05,48,4.50
2006,01,31,05,49,9.40
2006,01,31,05,50,5.10
2006,01,31,05,51,2.90
2006,01,31,05,52,4.40
2006,01,31,05,53,7.40
2006,01,31,05,54,6.40
2006,01,31,05,55,3.90
2006,01,31,05,56,5.00
2006,01,31,05,57,5.20
2006,01,31,05,58,8.90
2006,01,31,05,59,7.80
2006,01,31,06,00,9.90
2006,01,31,06,01,8.00
2006,01,31,06,02,2.30
2006,01,31,06,03,6.40
2006,01,31,06,04,7.00
2006,01,31,06,05,5.10
2006,01,31,06,06,3.80
2006,01,31,06,07,5.20
2006,01,31,06,08,4.70
2006,01,31,06,09,5.00
2006,01,31,06,10,6.90
2006,01,31,06,11,6.20
2006,01,31,06,12,2.50
2006,01,31,06,13,4.50
2006,01,31,06,14,4.30
2006,01,31,06,15,6.60
2006,01,31,06,16,8.50
2006,01,31,06,17,3.30
2006,01,31,06,18,3.90
2006,01,31,06,19,5.60
2006,01,31,06,20,5.10
2006,01,31,06,21,5.10
2006,01,31,06,22,6.40
2006,01,31,06,23,5.50
2006,01,31,06,24,9.00
2006,01,31,06,25,9.30
2006,01,31,06,26,6.40
2006,01,31,06,27,4.10
2006,01,31,06,28,3.10
2006,01,31,06,29,3.70
2006,01,31,06,30,2.20
2006,01,31,06,31,2.20
2006,01,31,06,32,2.10
2006,01,31,06,33,6.10
2006,01,31,06,34,4.40
2006,01,31,06,35,3.70
2006,01,31,06,36,7.20
2006,01,31,06,37,3.70
2006,01,31,06,38,5.20
2006,01,31,06,39,3.90
2006,01,31,06,40,2.70
2006,01,31,06,41,4.40
2006,01,31,06,42,4.20
2006,01,31,06,43,5.10
2006,01,31,06,44,9.40
2006,01,31,06,45,10.90
2006,01,31,06,46,10.30
2006,01,31,06,47,5.60
2006,01,31,06,48,7.90
2006,01,31,06,49,4.10
2006,01,31,06,50,5.20
2006,01,31,06,51,6.70
2006,01,31,06,52,7.60
2006,01,31,06,53,6.20
2006,01,31,06,54,5.60
2006,01,31,06,55,4.60
2006,01,31,06,56,6.00
2006,01,31,06,57,3.60
2006,01,31,06,58,4.90
2006,01,31,06,59,6.00
2006,01,31,07,00,4.40
2006,01,31,07,01,7.60
2006,01,31,07,02,7.80
2006,01,31,07,03,4.60
2006,01,31,07,04,7.20
2006,01,31,07,05,3.70
2006,01,31,07,06,3.80
2006,01,31,07,07,3.70
2006,01,31,07,08,4.30
2006,01,31,07,09,2.10
2006,01,31,07,10,3.30
2006,01,31,07,11,3.50
2006,01,31,07,12,2.20
2006,01,31,07,13,5.40
2006,01,31,07,14,5.00
2006,01,31,07,15,2.70
2006,01,31,07,16,5.30
2006,01,31,07,17,1.90
2006,01,31,07,18,4.20
2006,01,31,07,19,7.30
2006,01,31,07,20,5.40
2006,01,31,07,21,6.30
2006,01,31,07,22,5.30
2006,01,31,07,23,4.20
2006,01,31,07,24,4.80
2006,01,31,07,25,3.70
2006,01,31,07,26,2.30
2006,01,31,07,27,3.70
2006,01,31,07,28,3.00
2006,01,31,07,29,3.40
2006,01,31,07,30,5.00
2006,01,31,07,31,3.90
2006,01,31,07,32,4.30
2006,01,31,07,33,3.60
2006,01,31,07,34,4.10
2006,01,31,07,35,3.60
2006,01,31,07,36,5.10
2006,01,31,07,37,7.20
2006,01,31,07,38,3.50
2006,01,31,07,39,2.30
2006,01,31,07,40,3.70
2006,01,31,07,41,3.20
2006,01,31,07,42,4.00
2006,01,31,07,43,0.90
2006,01,31,07,44,1.20
2006,01,31,07,45,5.80
2006,01,31,07,46,3.00
2006,01,31,07,47,3.50
2006,01,31,07,48,4.30
2006,01,31,07,49,0.50
2006,01,31,07,50,1.00
2006,01,31,07,51,5.80
2006,01,31,07,52,3.70
2006,01,31,07,53,3.10
2006,01,31,07,54,5.80
2006,01,31,07,55,3.50
2006,01,31,07,56,2.60
2006,01,31,07,57,2.70
2006,01,31,07,58,3.60
2006,01,31,07,59,5.80
2006,01,31,08,00,5.30
2006,01,31,08,01,3.00
2006,01,31,08,02,5.60
2006,01,31,08,03,4.90
2006,01,31,08,04,8.10
2006,01,31,08,05,3.00
2006,01,31,08,06,2.70
2006,01,31,08,07,2.90
2006,01,31,08,08,7.10
2006,01,31,08,09,8.00
2006,01,31,08,10,6.40
2006,01,31,08,11,6.40
2006,01,31,08,12,6.30
2006,01,31,08,13,2.90
2006,01,31,08,14,3.30
2006,01,31,08,15,3.10
2006,01,31,08,16,6.90
2006,01,31,08,17,6.90
2006,01,31,08,18,5.10
2006,01,31,08,19,6.90
2006,01,31,08,20,5.50
2006,01,31,08,21,5.10
2006,01,31,08,22,9.50
2006,01,31,08,23,7.20
2006,01,31,08,24,3.60
2006,01,31,08,25,2.70
2006,01,31,08,26,1.70
2006,01,31,08,27,2.60
2006,01,31,08,28,0.40
2006,01,31,08,29,2.50
2006,01,31,08,30,3.20
2006,01,31,08,31,2.10
2006,01,31,08,32,4.60
2006,01,31,08,33,4.30
2006,01,31,08,34,6.20
2006,01,31,08,35,4.20
2006,01,31,08,36,6.20
2006,01,31,08,37,5.20
2006,01,31,08,38,8.00
2006,01,31,08,39,3.60
2006,01,31,08,40,8.30
2006,01,31,08,41,7.30
2006,01,31,08,42,5.20
2006,01,31,08,43,10.30
2006,01,31,08,44,8.60
2006,01,31,08,45,10.50
2006,01,31,08,46,8.90
2006,01,31,08,47,8.50
2006,01,31,08,48,14.20
2006,01,31,08,49,5.80
2006,01,31,08,50,6.90
2006,01,31,08,51,8.20
2006,01,31,08,52,7.80
2006,01,31,08,53,6.80
2006,01,31,08,54,6.00
2006,01,31,08,55,6.80
2006,01,31,08,56,4.20
2006,01,31,08,57,6.90
2006,01,31,08,58,9.20
2006,01,31,08,59,9.80
2006,01,31,09,00,5.70
2006,01,31,09,01,9.10
2006,01,31,09,02,7.60
2006,01,31,09,03,4.90
2006,01,31,09,04,5.80
2006,01,31,09,05,5.80
2006,01,31,09,06,4.10
2006,01,31,09,07,4.60
2006,01,31,09,08,4.80
2006,01,31,09,09,4.40
2006,01,31,09,10,7.60
2006,01,31,09,11,7.60
2006,01,31,09,12,8.00
2006,01,31,09,13,7.10
2006,01,31,09,14,4.40
2006,01,31,09,15,7.00
2006,01,31,09,16,7.30
2006,01,31,09,17,5.20
2006,01,31,09,18,6.10
2006,01,31,09,19,8.20
2006,01,31,09,20,4.10
2006,01,31,09,21,8.10
2006,01,31,09,22,7.70
2006,01,31,09,23,6.40
2006,01,31,09,24,8.00
2006,01,31,09,25,5.80
2006,01,31,09,26,6.40
2006,01,31,09,27,8.60
2006,01,31,09,28,4.50
2006,01,31,09,29,3.90
2006,01,31,09,30,9.20
2006,01,31,09,31,7.20
2006,01,31,09,32,7.10
2006,01,31,09,33,4.80
2006,01,31,09,34,4.00
2006,01,31,09,35,4.70
2006,01,31,09,36,8.20
2006,01,31,09,37,6.10
2006,01,31,09,38,3.90
2006,01,31,09,39,2.40
2006,01,31,09,40,5.90
2006,01,31,09,41,4.90
2006,01,31,09,42,8.30
2006,01,31,09,43,7.50
2006,01,31,09,44,9.20
2006,01,31,09,45,6.20
2006,01,31,09,46,6.20
2006,01,31,09,47,5.80
2006,01,31,09,48,4.70
2006,01,31,09,49,12.90
2006,01,31,09,50,12.50
2006,01,31,09,51,12.90
2006,01,31,09,52,12.60
2006,01,31,09,53,14.80
2006,01,31,09,54,12.30
2006,01,31,09,55,7.20
2006,01,31,09,56,6.90
2006,01,31,09,57,10.80
2006,01,31,09,58,9.90
2006,01,31,09,59,10.00
2006,01,31,10,00,12.90
2006,01,31,10,01,10.00
2006,01,31,10,02,7.50
2006,01,31,10,03,10.70
2006,01,31,10,04,14.70
2006,01,31,10,05,16.80
2006,01,31,10,06,15.10
2006,01,31,10,07,8.20
2006,01,31,10,08,8.10
2006,01,31,10,09,9.40
2006,01,31,10,10,6.80
2006,01,31,10,11,9.60
2006,01,31,10,12,11.90
2006,01,31,10,13,8.80
2006,01,31,10,14,11.70
2006,01,31,10,15,11.00
2006,01,31,10,16,10.80
2006,01,31,10,17,8.80
2006,01,31,10,18,13.80
2006,01,31,10,19,6.10
2006,01,31,10,20,4.20
2006,01,31,10,21,1.10
2006,01,31,10,22,11.90
2006,01,31,10,23,8.20
2006,01,31,10,24,8.70
2006,01,31,10,25,13.20
2006,01,31,10,26,14.90
2006,01,31,10,27,12.20
2006,01,31,10,28,16.40
2006,01,31,10,29,19.70
2006,01,31,10,30,13.00
2006,01,31,10,31,10.60
2006,01,31,10,32,10.30
2006,01,31,10,33,8.80
2006,01,31,10,34,17.80
2006,01,31,10,35,16.70
2006,01,31,10,36,19.20
2006,01,31,10,37,12.70
2006,01,31,10,38,11.60
2006,01,31,10,39,10.40
2006,01,31,10,40,9.40
2006,01,31,10,41,13.90
2006,01,31,10,42,12.80
2006,01,31,10,43,8.90
2006,01,31,10,44,5.80
2006,01,31,10,45,6.20
2006,01,31,10,46,4.80
2006,01,31,10,47,6.40
2006,01,31,10,48,8.80
2006,01,31,10,49,5.90
2006,01,31,10,50,10.50
2006,01,31,10,51,10.70
2006,01,31,10,52,10.10
2006,01,31,10,53,8.10
2006,01,31,10,54,7.60
2006,01,31,10,55,5.60
2006,01,31,10,56,7.00
2006,01,31,10,57,5.70
2006,01,31,10,58,3.40
2006,01,31,10,59,1.00
2006,01,31,11,00,1.80
2006,01,31,11,01,2.40
2006,01,31,11,02,3.00
2006,01,31,11,03,2.30
2006,01,31,11,04,1.30
2006,01,31,11,05,1.20
2006,01,31,11,06,3.80
2006,01,31,11,07,0.30
2006,01,31,11,08,1.30
2006,01,31,11,09,2.60
2006,01,31,11,10,3.90
2006,01,31,11,11,3.10
2006,01,31,11,12,2.30
2006,01,31,11,13,3.40
2006,01,31,11,14,6.40
2006,01,31,11,15,9.00
2006,01,31,11,16,9.00
2006,01,31,11,17,16.90
2006,01,31,11,18,10.70
2006,01,31,11,19,10.40
2006,01,31,11,20,6.30
2006,01,31,11,21,7.90
2006,01,31,11,22,9.80
2006,01,31,11,23,14.70
2006,01,31,11,24,19.00
2006,01,31,11,25,14.70
2006,01,31,11,26,11.80
2006,01,31,11,27,10.80
2006,01,31,11,28,9.50
2006,01,31,11,29,13.50
2006,01,31,11,30,11.70
2006,01,31,11,31,11.80
2006,01,31,11,32,9.90
2006,01,31,11,33,9.70
2006,01,31,11,34,13.20
2006,01,31,11,35,12.10
2006,01,31,11,36,8.10
2006,01,31,11,37,16.50
2006,01,31,11,38,13.20
2006,01,31,11,39,14.50
2006,01,31,11,40,16.50
2006,01,31,11,41,15.20
2006,01,31,11,42,17.50
2006,01,31,11,43,9.90
2006,01,31,11,44,13.60
2006,01,31,11,45,11.70
2006,01,31,11,46,10.50
2006,01,31,11,47,8.20
2006,01,31,11,48,10.80
2006,01,31,11,49,12.50
2006,01,31,11,50,18.70
2006,01,31,11,51,12.20
2006,01,31,11,52,7.70
2006,01,31,11,53,14.50
2006,01,31,11,54,14.20
2006,01,31,11,55,15.70
2006,01,31,11,56,10.80
2006,01,31,11,57,12.60
2006,01,31,11,58,9.30
2006,01,31,11,59,15.70
2006,01,31,12,00,15.20
2006,01,31,12,01,17.40
2006,01,31,12,02,9.80
2006,01,31,12,03,10.90
2006,01,31,12,04,7.50
2006,01,31,12,05,7.40
2006,01,31,12,06,8.90
2006,01,31,12,07,8.50
2006,01,31,12,08,8.40
2006,01,31,12,09,16.30
2006,01,31,12,10,14.70
2006,01,31,12,11,13.20
2006,01,31,12,12,12.00
2006,01,31,12,13,10.70
2006,01,31,12,14,16.30
2006,01,31,12,15,14.70
2006,01,31,12,16,15.00
2006,01,31,12,17,13.90
2006,01,31,12,18,23.40
2006,01,31,12,19,24.70
2006,01,31,12,20,18.50
2006,01,31,12,21,20.30
2006,01,31,12,22,21.50
2006,01,31,12,23,19.70
2006,01,31,12,24,20.30
2006,01,31,12,25,23.90
2006,01,31,12,26,16.80
2006,01,31,12,27,25.20
2006,01,31,12,28,21.30
2006,01,31,12,29,21.30
2006,01,31,12,30,16.90
2006,01,31,12,31,24.60
2006,01,31,12,32,21.40
2006,01,31,12,33,20.00
2006,01,31,12,34,14.40
2006,01,31,12,35,19.70
2006,01,31,12,36,22.50
2006,01,31,12,37,22.30
2006,01,31,12,38,23.00
2006,01,31,12,39,23.00
2006,01,31,12,40,21.10
2006,01,31,12,41,20.40
2006,01,31,12,42,27.60
2006,01,31,12,43,22.70
2006,01,31,12,44,31.80
2006,01,31,12,45,24.80
2006,01,31,12,46,21.40
2006,01,31,12,47,24.50
2006,01,31,12,48,21.90
2006,01,31,12,49,20.40
2006,01,31,12,50,19.30
2006,01,31,12,51,27.20
2006,01,31,12,52,30.80
2006,01,31,12,53,26.90
2006,01,31,12,54,29.20
2006,01,31,12,55,25.30
2006,01,31,12,56,24.70
2006,01,31,12,57,19.60
2006,01,31,12,58,21.30
2006,01,31,12,59,24.00
2006,01,31,13,00,18.70
2006,01,31,13,01,26.30
2006,01,31,13,02,26.40
2006,01,31,13,03,30.20
2006,01,31,13,04,27.80
2006,01,31,13,05,19.40
2006,01,31,13,06,29.90
2006,01,31,13,07,25.20
2006,01,31,13,08,33.90
2006,01,31,13,09,30.20
2006,01,31,13,10,25.40
2006,01,31,13,11,26.20
2006,01,31,13,12,27.20
2006,01,31,13,13,28.30
2006,01,31,13,14,29.40
2006,01,31,13,15,28.60
2006,01,31,13,16,29.70
2006,01,31,13,17,34.50
2006,01,31,13,18,24.90
2006,01,31,13,19,27.60
2006,01,31,13,20,29.20
2006,01,31,13,21,26.90
2006,01,31,13,22,33.20
2006,01,31,13,23,27.90
2006,01,31,13,24,29.50
2006,01,31,13,25,25.00
2006,01,31,13,26,22.10
2006,01,31,13,27,30.70
2006,01,31,13,28,32.90
2006,01,31,13,29,30.50
2006,01,31,13,30,34.20
2006,01,31,13,31,31.50
2006,01,31,13,32,39.10
2006,01,31,13,33,31.10
2006,01,31,13,34,31.00
2006,01,31,13,35,34.10
2006,01,31,13,36,32.90
2006,01,31,13,37,32.70
2006,01,31,13,38,31.20
2006,01,31,13,39,34.80
2006,01,31,13,40,26.60
2006,01,31,13,41,32.00
2006,01,31,13,42,39.00
2006,01,31,13,43,35.40
2006,01,31,13,44,27.50
2006,01,31,13,45,34.30
2006,01,31,13,46,26.00
2006,01,31,13,47,27.60
2006,01,31,13,48,35.10
2006,01,31,13,49,39.00
2006,01,31,13,50,25.50
2006,01,31,13,51,34.90
2006,01,31,13,52,20.20
2006,01,31,13,53,29.30
2006,01,31,13,54,29.10
2006,01,31,13,55,39.60
2006,01,31,13,56,27.10
2006,01,31,13,57,37.50
2006,01,31,13,58,31.00
2006,01,31,13,59,33.40
2006,01,31,14,00,24.10
2006,01,31,14,01,34.60
2006,01,31,14,02,36.30
2006,01,31,14,03,32.30
2006,01,31,14,04,32.20
2006,01,31,14,05,33.00
2006,01,31,14,06,31.90
2006,01,31,14,07,27.10
2006,01,31,14,08,22.70
2006,01,31,14,09,25.30
2006,01,31,14,10,41.80
2006,01,31,14,11,37.10
2006,01,31,14,12,39.90
2006,01,31,14,13,27.60
2006,01,31,14,14,39.70
2006,01,31,14,15,39.30
2006,01,31,14,16,40.60
2006,01,31,14,17,45.30
2006,01,31,14,18,46.40
2006,01,31,14,19,37.20
2006,01,31,14,20,39.20
2006,01,31,14,21,29.60
2006,01,31,14,22,28.00
2006,01,31,14,23,30.80
2006,01,31,14,24,33.50
2006,01,31,14,25,30.70
2006,01,31,14,26,36.30
2006,01,31,14,27,34.10
2006,01,31,14,28,33.50
2006,01,31,14,29,25.00
2006,01,31,14,30,37.30
2006,01,31,14,31,41.40
2006,01,31,14,32,34.40
2006,01,31,14,33,38.40
2006,01,31,14,34,32.50
2006,01,31,14,35,32.60
2006,01,31,14,36,41.00
2006,01,31,14,37,32.00
2006,01,31,14,38,35.20
2006,01,31,14,39,33.60
2006,01,31,14,40,44.00
2006,01,31,14,41,35.50
2006,01,31,14,42,43.80
2006,01,31,14,43,38.40
2006,01,31,14,44,36.90
2006,01,31,14,45,36.80
2006,01,31,14,46,37.50
2006,01,31,14,47,43.50
2006,01,31,14,48,40.90
2006,01,31,14,49,29.30
2006,01,31,14,50,40.00
2006,01,31,14,51,31.90
2006,01,31,14,52,34.10
2006,01,31,14,53,40.10
2006,01,31,14,54,27.80
2006,01,31,14,55,32.70
2006,01,31,14,56,49.70
2006,01,31,14,57,36.30
2006,01,31,14,58,29.60
2006,01,31,14,59,29.80
2006,01,31,15,00,33.20
2006,01,31,15,01,36.60
2006,01,31,15,02,47.70
2006,01,31,15,03,31.90
2006,01,31,15,04,31.80
2006,01,31,15,05,39.70
2006,01,31,15,06,36.10
2006,01,31,15,07,29.20
2006,01,31,15,08,37.70
2006,01,31,15,09,44.00
2006,01,31,15,10,40.10
2006,01,31,15,11,36.90
2006,01,31,15,12,44.00
2006,01,31,15,13,34.90
2006,01,31,15,14,34.10
2006,01,31,15,15,48.80
2006,01,31,15,16,38.50
2006,01,31,15,17,27.60
2006,01,31,15,18,42.10
2006,01,31,15,19,27.90
2006,01,31,15,20,31.30
2006,01,31,15,21,40.10
2006,01,31,15,22,37.70
2006,01,31,15,23,43.40
2006,01,31,15,24,34.90
2006,01,31,15,25,45.10
2006,01,31,15,26,39.00
2006,01,31,15,27,28.10
2006,01,31,15,28,37.30
2006,01,31,15,29,34.70
2006,01,31,15,30,26.10
2006,01,31,15,31,44.30
2006,01,31,15,32,38.10
2006,01,31,15,33,43.10
2006,01,31,15,34,30.70
2006,01,31,15,35,43.40
2006,01,31,15,36,30.90
2006,01,31,15,37,30.70
2006,01,31,15,38,28.00
2006,01,31,15,39,40.70
2006,01,31,15,40,32.20
2006,01,31,15,41,39.40
2006,01,31,15,42,30.00
2006,01,31,15,43,36.90
2006,01,31,15,44,43.00
2006,01,31,15,45,27.20
2006,01,31,15,46,41.80
2006,01,31,15,47,32.70
2006,01,31,15,48,13.40
2006,01,31,15,49,35.20
2006,01,31,15,50,41.50
2006,01,31,15,51,31.30
2006,01,31,15,52,29.10
2006,01,31,15,53,46.00
2006,01,31,15,54,37.50
2006,01,31,15,55,30.50
2006,01,31,15,56,36.20
2006,01,31,15,57,39.20
2006,01,31,15,58,24.10
2006,01,31,15,59,43.00
2006,01,31,16,00,24.90
2006,01,31,16,01,37.90
2006,01,31,16,02,34.80
2006,01,31,16,03,34.80
2006,01,31,16,04,35.90
2006,01,31,16,05,47.90
2006,01,31,16,06,35.00
2006,01,31,16,07,34.20
2006,01,31,16,08,31.10
2006,01,31,16,09,26.30
2006,01,31,16,10,33.10
2006,01,31,16,11,37.30
2006,01,31,16,12,37.70
2006,01,31,16,13,36.70
2006,01,31,16,14,41.60
2006,01,31,16,15,43.50
2006,01,31,16,16,41.00
2006,01,31,16,17,41.40
2006,01,31,16,18,40.10
2006,01,31,16,19,50.20
2006,01,31,16,20,42.20
2006,01,31,16,21,39.70
2006,01,31,16,22,37.20
2006,01,31,16,23,25.80
2006,01,31,16,24,46.00
2006,01,31,16,25,39.40
2006,01,31,16,26,37.70
2006,01,31,16,27,45.10
2006,01,31,16,28,44.00
2006,01,31,16,29,29.60
2006,01,31,16,30,28.90
2006,01,31,16,31,35.50
2006,01,31,16,32,37.30
2006,01,31,16,33,41.40
2006,01,31,16,34,36.90
2006,01,31,16,35,47.10
2006,01,31,16,36,47.40
2006,01,31,16,37,42.00
2006,01,31,16,38,45.70
2006,01,31,16,39,45.60
2006,01,31,16,40,38.80
2006,01,31,16,41,31.20
2006,01,31,16,42,29.80
2006,01,31,16,43,43.80
2006,01,31,16,44,44.70
2006,01,31,16,45,37.30
2006,01,31,16,46,43.00
2006,01,31,16,47,42.40
2006,01,31,16,48,31.30
2006,01,31,16,49,41.30
2006,01,31,16,50,47.00
2006,01,31,16,51,38.90
2006,01,31,16,52,48.70
2006,01,31,16,53,50.80
2006,01,31,16,54,35.20
2006,01,31,16,55,32.20
2006,01,31,16,56,44.10
2006,01,31,16,57,37.00
2006,01,31,16,58,33.30
2006,01,31,16,59,46.90
2006,01,31,17,00,39.20
2006,01,31,17,01,28.70
2006,01,31,17,02,41.80
2006,01,31,17,03,33.30
2006,01,31,17,04,37.30
2006,01,31,17,05,34.80
2006,01,31,17,06,39.20
2006,01,31,17,07,36.90
2006,01,31,17,08,37.40
2006,01,31,17,09,41.80
2006,01,31,17,10,27.90
2006,01,31,17,11,22.20
2006,01,31,17,12,36.60
2006,01,31,17,13,37.10
2006,01,31,17,14,31.90
2006,01,31,17,15,34.70
2006,01,31,17,16,36.60
2006,01,31,17,17,31.60
2006,01,31,17,18,35.40
2006,01,31,17,19,38.70
2006,01,31,17,20,35.90
2006,01,31,17,21,22.90
2006,01,31,17,22,37.30
2006,01,31,17,23,32.10
2006,01,31,17,24,38.70
2006,01,31,17,25,35.00
2006,01,31,17,26,36.90
2006,01,31,17,27,36.90
2006,01,31,17,28,34.10
2006,01,31,17,29,42.90
2006,01,31,17,30,36.00
2006,01,31,17,31,26.10
2006,01,31,17,32,42.00
2006,01,31,17,33,38.00
2006,01,31,17,34,37.30
2006,01,31,17,35,36.60
2006,01,31,17,36,41.70
2006,01,31,17,37,37.30
2006,01,31,17,38,34.10
2006,01,31,17,39,38.00
2006,01,31,17,40,31.90
2006,01,31,17,41,44.00
2006,01,31,17,42,47.10
2006,01,31,17,43,37.00
2006,01,31,17,44,43.20
2006,01,31,17,45,39.80
2006,01,31,17,46,39.00